Theta_e
349 349 350 349 350 352 352 350 351 354 356 356 355 355 355 354 354 354 353 354 354 353 352 354 355 353 352 352 353 355 353 351 353 350 343 343 345 349 353 351 345 345 347 349 352 355 354 349 347 347 347 347 350 350 349 348 348 348 349 349 350 350 351 353 354 355 352 350 352 350 348 349 348 347 349 348 348 349 349 350 349 348 348 347 345
349 349 349 350 350 350 350 351 351 353 355 355 355 356 355 355 355 354 354 354 354 355 354 354 355 354 355 355 354 357 355 350 352 354 351 347 345 348 352 349 344 345 346 345 346 351 353 348 344 347 349 348 349 350 349 349 348 348 348 349 350 351 352 353 354 355 354 353 353 353 351 351 350 351 351 350 350 351 351 351 349 345 345 346 345
348 350 350 350 350 349 349 350 351 351 353 354 354 354 355 355 354 355 355 354 354 355 354 354 355 354 355 356 354 356 354 349 352 357 354 349 348 351 356 356 351 348 348 349 349 351 354 352 349 350 352 352 352 352 351 350 350 349 350 350 351 350 350 352 353 354 354 353 351 352 352 352 352 352 352 351 351 351 352 351 348 345 345 346 344
347 349 351 350 349 349 349 348 349 350 351 352 353 353 353 354 354 355 355 354 354 354 354 355 356 352 353 355 351 349 350 349 352 356 354 351 349 349 352 356 356 353 352 354 355 355 355 355 354 354 353 353 354 354 352 351 352 353 353 353 353 353 353 354 354 354 354 353 350 350 350 350 351 353 353 352 351 351 351 349 349 348 347 347 345
349 350 351 351 349 349 349 347 347 347 347 348 350 351 352 352 353 353 353 352 352 353 353 355 356 354 353 355 352 348 348 349 351 354 356 355 353 352 351 351 352 351 351 353 353 353 353 354 355 354 353 354 354 354 354 355 356 355 354 356 356 357 357 356 355 354 354 354 352 350 351 352 354 355 355 354 352 351 350 350 351 351 349 349 347
350 350 350 351 350 349 349 347 346 346 345 345 345 347 349 350 352 352 352 352 352 352 353 354 356 356 355 356 356 352 349 351 352 351 354 356 355 356 355 353 354 353 353 354 353 353 354 354 354 353 354 355 354 354 355 355 355 355 355 355 355 355 355 356 356 355 356 356 355 353 354 355 355 355 355 355 354 354 354 354 353 351 350 350 349
350 347 347 350 350 350 349 348 347 346 344 344 344 344 345 347 348 349 349 350 351 352 352 353 354 356 356 356 357 355 353 355 353 347 350 354 356 357 357 356 356 356 355 355 354 354 355 355 355 355 354 355 355 355 355 354 354 356 356 355 356 357 356 356 357 357 358 357 356 354 355 354 354 354 354 355 355 355 355 353 351 350 350 351 350
354 348 347 351 350 348 350 350 348 347 345 344 344 344 344 344 345 346 346 347 349 350 351 352 352 354 355 354 355 356 355 356 354 348 348 353 354 354 354 354 356 356 355 355 354 353 353 353 354 354 354 355 356 355 356 356 356 357 358 358 358 358 356 356 357 357 356 356 355 354 354 354 354 353 353 353 352 352 350 348 347 347 348 349 349
353 348 350 354 352 348 348 350 349 349 348 346 346 346 345 345 344 345 345 345 346 347 348 350 351 352 353 353 353 354 354 355 355 353 352 352 349 348 350 352 354 355 355 355 354 353 353 352 352 352 353 355 355 353 352 351 350 351 352 352 352 352 351 352 355 355 354 354 354 354 353 353 351 350 349 349 348 346 345 344 345 346 347 348 347
349 347 349 354 353 348 348 349 347 347 349 349 349 348 347 346 346 346 346 345 346 347 347 347 348 350 351 352 352 353 353 353 352 351 352 351 348 346 348 349 352 355 356 355 354 353 352 352 351 350 351 352 352 350 346 342 339 338 339 339 340 341 342 344 348 351 353 354 353 352 351 349 346 345 345 345 343 342 343 345 346 347 347 347 348
351 349 349 354 355 351 349 351 348 345 347 349 350 351 350 349 349 349 349 349 348 349 349 348 348 349 350 351 351 352 352 351 350 349 350 350 347 345 346 348 350 353 353 353 353 352 351 350 349 349 350 351 350 349 346 342 340 339 339 338 337 337 336 336 339 343 346 348 349 348 347 346 346 345 344 342 342 345 346 346 347 346 346 349 351
351 351 351 354 357 354 351 352 350 346 345 346 348 350 351 351 350 350 352 353 352 351 351 351 350 349 349 349 349 349 349 349 349 349 350 350 348 346 347 349 351 350 349 350 351 351 350 349 349 348 348 348 348 348 348 347 345 344 344 344 342 341 340 340 339 339 338 341 344 346 346 346 348 348 346 345 345 345 345 344 345 347 349 351 351
348 350 351 354 355 353 351 350 348 347 346 348 349 349 348 348 348 347 349 350 351 351 352 351 350 349 348 348 347 347 347 347 347 347 348 349 348 345 344 346 348 348 349 350 350 350 350 351 351 350 348 347 348 349 350 351 349 346 344 345 345 344 344 344 344 344 343 344 346 348 348 348 349 349 348 347 346 345 346 348 349 350 351 351 350
347 344 346 351 352 352 352 351 349 349 350 350 350 348 346 347 347 347 347 346 347 348 350 352 352 350 348 348 349 348 348 347 347 346 346 345 343 341 340 343 346 347 346 348 349 350 351 352 353 352 350 350 352 352 352 354 354 351 346 345 345 346 346 346 345 345 346 348 348 349 349 348 349 350 350 351 351 351 351 351 351 352 352 350 350
350 346 346 350 351 351 352 351 351 352 351 350 349 347 347 348 347 349 349 348 348 348 348 352 353 351 349 349 351 350 348 347 346 344 343 342 339 337 337 340 344 345 345 347 349 352 353 353 354 354 352 352 354 354 352 352 351 349 346 344 344 346 348 349 349 349 349 349 349 349 350 350 351 351 352 353 353 353 352 351 351 351 351 350 350
352 351 351 351 351 350 350 349 349 349 349 348 346 346 347 346 346 347 347 348 351 351 350 352 354 353 352 353 353 349 344 344 345 342 342 343 342 341 340 340 342 345 347 350 352 354 355 354 353 353 352 352 353 353 351 349 346 344 343 343 343 345 348 349 350 351 351 350 351 351 352 351 351 351 351 351 350 350 350 350 350 349 349 350 349
352 353 352 351 350 350 349 349 348 347 346 346 346 347 347 346 345 344 344 345 349 351 352 354 353 352 352 353 352 347 343 343 344 344 345 348 348 348 347 346 346 347 349 351 352 352 351 351 351 352 351 350 350 350 349 347 346 345 344 344 343 345 347 348 348 349 350 350 350 351 351 351 351 350 350 349 349 350 350 350 348 349 350 351 350
350 351 351 350 351 350 350 350 349 348 348 348 348 349 349 347 345 344 344 345 347 348 351 353 352 351 351 351 350 346 344 345 346 347 349 351 352 352 351 350 350 349 350 351 351 349 348 349 349 349 349 349 349 348 347 347 347 347 347 346 346 347 350 351 351 350 350 350 350 350 351 352 352 351 350 351 351 351 352 351 350 351 352 352 352
348 348 349 349 349 349 350 349 348 348 348 349 349 350 349 347 346 346 347 347 348 349 350 351 351 350 350 350 349 347 346 347 348 349 351 351 351 351 351 351 351 352 352 352 351 350 349 350 349 349 350 351 350 349 349 349 349 349 348 349 349 351 352 352 352 352 351 350 350 351 352 352 352 352 353 353 353 352 352 352 352 353 353 353 353
345 345 346 346 347 347 348 348 348 347 348 348 348 348 348 347 347 348 348 348 349 349 349 349 350 350 349 349 349 348 348 349 349 349 349 349 349 349 350 351 352 353 353 351 351 351 350 351 351 350 351 351 351 351 350 349 349 349 349 349 350 350 350 350 351 351 350 350 350 351 352 352 352 352 353 353 352 352 353 353 353 353 352 352 353
343 343 343 344 344 344 344 344 344 345 345 345 345 345 346 346 346 346 347 346 347 347 346 346 348 349 349 348 348 347 347 348 347 346 346 346 347 347 348 349 350 351 350 349 349 349 347 348 348 348 349 348 348 349 348 348 347 347 347 347 347 347 348 347 348 349 348 349 350 351 352 352 352 352 352 352 351 351 351 352 352 352 351 351 352
340 340 341 342 342 343 343 342 342 342 343 342 342 342 342 343 343 344 344 343 344 344 344 344 345 346 345 345 344 345 345 344 343 342 342 342 343 344 345 346 348 348 347 347 346 345 345 345 345 346 346 343 341 342 341 341 341 341 341 341 341 342 342 343 344 346 347 347 348 350 351 351 351 351 351 350 350 351 351 351 350 350 350 350 350
337 337 338 338 339 339 339 339 339 339 339 338 336 336 336 338 338 339 339 338 339 339 340 340 340 341 340 339 338 338 337 336 335 335 334 335 336 337 338 340 341 343 342 342 341 340 340 339 337 337 336 333 332 332 331 331 331 331 332 333 333 334 335 337 338 340 341 341 343 344 345 343 344 346 346 345 345 345 346 345 346 347 349 349 350
331 330 330 333 335 336 337 337 336 335 333 332 331 330 330 330 330 330 330 330 330 331 331 331 331 331 331 330 330 329 328 327 327 327 328 328 328 328 329 330 331 332 332 332 331 330 330 329 327 327 326 325 324 323 324 324 323 324 326 325 326 329 331 330 329 329 330 332 333 334 334 332 332 333 334 332 332 332 332 332 334 338 340 342 344
325 324 325 328 330 331 333 333 333 332 330 328 326 325 326 326 324 325 325 323 322 323 324 323 322 322 322 321 322 322 323 322 322 322 323 324 324 324 323 323 323 323 323 323 323 323 323 322 321 320 320 320 320 320 320 320 319 321 320 320 327 333 331 324 322 322 324 325 325 325 326 325 324 324 323 322 322 322 322 322 323 325 326 327 330
327 326 328 329 328 328 328 328 328 328 327 325 323 323 325 326 326 328 328 325 323 325 325 322 319 319 320 319 320 320 320 320 320 320 321 322 323 322 320 320 320 319 319 319 318 318 317 317 317 317 316 316 315 315 315 315 315 317 315 317 328 331 324 317 319 319 319 320 319 319 321 320 320 320 320 320 321 321 320 319 319 320 320 320 321
329 329 329 329 328 328 328 326 326 325 325 324 322 321 320 320 323 327 328 327 327 329 329 326 325 325 325 324 325 324 323 324 324 321 319 319 318 317 316 315 314 314 314 314 313 314 313 313 313 312 311 313 313 315 318 316 314 313 312 315 324 324 314 312 316 315 314 316 315 315 316 316 316 317 318 320 322 320 318 317 317 317 317 317 317
329 328 327 327 327 327 327 327 326 326 326 325 323 322 321 320 319 320 322 323 325 328 330 329 329 328 327 327 327 327 326 326 323 318 316 314 313 313 313 312 312 312 312 311 312 312 310 311 313 313 314 317 319 321 323 321 318 319 317 315 321 322 315 310 312 311 311 312 311 311 313 312 312 313 314 316 317 314 312 312 312 313 313 312 312
328 327 326 326 326 326 326 327 326 326 327 324 321 321 322 320 316 315 316 317 321 325 328 328 328 327 327 327 327 326 326 324 319 315 314 313 312 312 311 311 311 311 310 311 310 310 311 315 319 319 320 322 322 321 322 322 320 322 321 317 319 321 316 312 311 309 309 310 309 310 310 310 310 311 311 312 311 309 309 310 309 309 310 310 311
327 327 326 326 325 325 325 325 324 324 325 323 320 318 318 317 315 315 316 315 318 322 325 326 326 325 326 326 325 326 326 322 316 314 313 312 312 311 310 310 310 309 310 310 309 312 317 321 323 322 321 323 322 320 321 322 320 320 321 320 320 320 316 313 312 309 309 310 310 309 310 310 310 310 310 310 310 309 310 310 309 309 310 310 311
327 327 326 326 325 324 324 324 324 324 324 322 321 318 317 317 317 316 316 315 317 319 321 322 322 321 320 321 322 323 323 318 314 312 312 311 311 310 310 310 309 309 310 308 311 319 323 323 323 321 320 322 322 319 320 322 320 319 319 320 321 320 316 312 311 310 310 311 310 310 311 311 311 311 310 310 310 311 312 311 311 312 313 314 315
326 325 326 326 325 325 325 325 325 324 324 323 322 321 319 318 318 317 317 317 317 317 317 317 317 316 316 316 316 317 316 314 312 311 311 310 310 310 310 310 309 310 310 309 314 321 323 322 323 322 320 322 321 317 317 319 317 316 316 317 320 320 315 310 309 310 310 310 311 311 311 311 310 311 311 310 311 313 314 314 316 317 317 317 318
324 325 326 326 325 325 325 325 325 325 324 323 323 323 321 320 319 318 317 316 316 316 316 316 316 315 315 314 314 313 312 311 311 310 310 310 311 310 310 309 309 309 309 309 314 318 319 320 322 320 319 320 318 316 316 316 313 314 315 316 316 316 312 308 308 309 309 309 310 311 311 311 310 310 311 311 312 313 314 315 318 319 318 317 316
325 325 325 325 325 325 325 325 325 324 324 323 323 323 322 322 321 320 318 316 316 315 314 314 315 315 314 314 312 312 311 310 310 311 310 310 310 310 309 310 313 314 312 311 315 317 317 319 319 318 316 317 315 314 315 314 312 314 315 315 315 314 311 310 311 311 309 308 310 311 311 310 310 311 311 311 312 312 313 314 316 317 317 316 314
324 324 324 324 325 324 324 324 324 323 323 322 322 322 322 321 321 320 319 319 319 318 316 315 313 313 313 313 312 311 311 310 311 311 310 309 309 308 309 313 319 319 317 317 318 316 316 317 317 316 315 315 315 314 314 314 314 313 313 313 313 312 312 314 314 310 307 308 311 313 312 311 311 312 312 312 314 314 314 315 316 316 315 313 312
322 322 322 322 323 322 322 322 322 322 322 321 321 321 321 320 320 320 320 320 320 319 319 317 314 312 313 312 311 311 311 311 310 310 309 308 308 308 310 316 319 318 317 318 317 314 313 315 315 314 314 315 315 315 315 315 314 313 313 313 312 311 312 313 312 308 308 311 314 315 314 314 314 312 312 313 314 314 314 314 315 314 312 310 309
320 320 320 321 321 321 321 321 320 320 321 320 319 319 319 318 319 319 319 318 318 318 318 318 316 315 315 314 312 310 310 309 309 309 309 308 308 309 313 317 318 317 317 317 316 313 312 312 313 313 313 313 313 313 313 313 312 312 313 312 311 310 312 312 311 311 312 313 315 316 315 314 313 312 312 313 313 312 312 312 312 311 309 307 307
318 319 319 319 320 320 320 319 319 319 318 318 317 317 317 317 317 317 317 317 317 317 317 317 316 317 317 317 314 311 309 310 312 312 312 311 312 314 316 317 316 316 317 316 315 314 313 312 312 312 312 311 311 311 311 311 312 312 311 311 311 312 313 312 312 313 313 313 314 315 314 313 312 311 311 311 311 311 312 310 309 308 307 308 309
316 316 317 318 318 318 318 317 316 316 316 316 316 316 316 316 316 316 317 317 316 316 317 317 316 316 316 315 313 311 311 314 316 316 316 315 315 315 315 315 315 315 315 315 314 313 313 312 312 312 311 310 310 310 310 311 311 310 310 310 311 312 312 312 312 312 312 312 313 313 312 311 311 310 309 309 309 310 309 308 307 308 309 310 311
314 314 315 316 316 315 315 315 314 314 315 315 315 315 315 315 315 315 316 316 316 315 316 316 316 315 314 312 309 307 311 315 316 315 315 315 315 314 314 314 314 314 313 313 313 312 311 311 311 311 310 310 310 310 310 310 310 310 310 310 311 311 311 311 311 311 311 311 311 311 311 310 309 309 308 308 308 308 307 307 308 309 309 310 310
313 313 313 314 314 313 313 313 314 314 314 314 314 314 314 314 314 314 315 315 315 315 314 314 314 313 311 308 305 304 307 311 313 314 314 313 313 313 312 311 311 311 311 311 311 310 310 310 309 309 309 309 309 309 309 309 309 309 309 309 309 309 309 309 309 309 309 309 309 309 309 308 307 307 306 306 307 307 307 307 308 308 308 308 308
312 312 312 312 312 312 312 312 313 313 313 313 313 313 313 313 313 313 314 314 314 314 313 313 312 311 308 305 303 302 303 305 309 311 312 311 311 311 310 310 310 310 309 309 309 308 308 308 308 307 307 307 307 307 307 307 308 308 308 308 308 308 308 308 307 307 307 307 307 307 306 305 305 304 304 304 305 306 307 307 307 307 306 307 307
311 311 311 310 310 311 312 312 312 312 313 313 312 313 313 312 312 312 312 312 312 312 312 312 312 311 308 304 302 301 302 305 307 309 310 310 309 309 309 309 309 309 308 308 307 307 307 306 306 306 306 306 305 305 306 306 306 306 306 306 306 306 306 306 306 306 305 305 305 304 303 303 302 302 302 302 304 304 305 305 306 306 306 305 305
310 310 310 309 310 311 312 312 311 312 312 312 311 312 311 311 311 311 311 311 311 311 311 311 311 311 310 307 305 305 306 308 309 308 308 308 308 308 308 308 307 307 307 307 306 306 306 305 304 304 304 304 304 304 304 304 305 305 305 305 305 304 304 304 304 304 304 303 303 302 301 301 301 300 300 301 302 302 303 304 304 305 305 304 304
309 310 309 310 311 311 311 311 311 311 311 310 310 310 310 310 311 311 311 311 310 309 310 310 310 309 309 308 308 307 308 308 308 307 307 307 307 307 306 306 306 305 305 305 305 305 304 303 303 303 303 302 303 303 303 303 303 303 303 303 303 303 303 303 303 303 302 302 302 301 300 300 300 299 299 299 300 301 302 303 303 303 303 303 303
309 309 309 310 311 311 311 311 311 310 310 310 310 310 309 309 310 310 310 310 310 309 309 309 308 307 306 307 307 307 306 307 306 306 306 305 305 305 305 305 304 304 304 303 303 303 302 302 302 301 301 301 301 301 301 301 301 301 301 302 302 302 301 301 301 301 301 301 301 300 299 299 298 298 298 299 299 300 301 302 302 302 302 302 302
309 309 309 310 310 310 310 310 310 309 309 310 311 310 309 309 310 309 308 308 307 307 308 308 307 306 306 306 306 306 305 305 305 304 304 304 304 304 303 303 303 302 302 302 302 301 301 300 300 300 300 300 300 300 300 300 300 300 300 300 300 300 300 300 300 300 300 299 299 298 298 298 297 297 297 298 299 300 300 301 301 302 302 302 302
309 309 309 310 310 309 310 309 309 309 310 310 310 309 309 308 308 308 307 306 305 305 306 306 306 306 306 305 305 304 304 304 303 303 303 303 303 302 302 302 301 300 300 301 300 300 300 299 299 299 299 299 299 299 298 298 298 298 299 299 299 299 299 299 299 298 298 298 297 297 297 296 296 296 296 297 298 299 299 300 300 301 301 301 302
308 308 309 309 309 309 309 308 308 308 308 308 308 307 307 307 306 306 307 306 305 305 306 306 306 306 305 304 303 303 303 302 302 302 302 302 301 301 301 300 300 299 299 299 299 299 299 298 298 298 298 298 298 298 297 297 297 297 297 298 298 298 297 297 297 297 296 296 295 295 295 295 295 295 296 297 297 298 299 299 300 300 301 301 301
308 308 308 308 307 307 307 306 306 307 307 307 306 306 306 306 306 306 306 305 305 305 305 305 304 304 303 303 303 302 302 301 301 301 301 300 300 300 300 299 299 299 298 298 298 298 298 298 298 297 297 297 297 297 297 297 297 297 296 296 296 296 295 295 295 294 294 294 294 294 295 295 295 295 296 296 297 298 299 299 299 300 300 300 301
308 308 307 307 306 307 306 306 306 306 306 306 306 306 305 305 305 305 305 304 305 305 304 304 303 303 302 302 302 301 301 300 300 300 300 300 299 299 299 299 298 298 298 298 297 297 297 297 297 297 297 297 297 296 296 296 296 296 296 295 295 295 294 294 294 294 294 294 295 295 295 295 295 296 296 296 297 298 298 299 299 299 299 300 300
Wind_Speed
19 19 18 17 16 16 16 16 16 15 14 14 13 12 12 11 10 10 10 10 9 9 9 9 9 9 9 9 9 8 9 9 9 9 9 9 9 9 9 10 9 8 8 8 7 7 9 9 8 8 8 8 7 7 7 7 7 7 7 7 7 7 7 8 10 13 12 11 11 11 11 13 13 12 13 14 13 14 14 14 14 15 15 15 16
19 19 18 18 17 17 17 17 17 16 15 15 14 13 13 13 12 12 11 11 10 9 9 9 9 10 9 9 9 9 10 11 9 9 9 9 9 9 9 9 8 8 8 8 8 8 9 9 9 8 8 9 8 8 7 8 8 8 8 7 7 7 8 9 10 12 13 11 11 12 11 11 12 12 13 13 13 13 13 13 13 14 15 14 15
19 19 19 18 18 17 17 17 17 17 16 15 15 15 14 14 14 14 12 11 11 10 10 10 10 11 10 10 11 11 12 12 9 9 10 10 9 8 8 8 8 8 8 8 8 8 8 9 9 8 8 9 9 8 8 8 8 8 8 8 9 9 8 9 11 12 13 13 12 12 12 12 13 13 13 12 12 13 13 13 13 14 14 14 14
20 20 19 18 18 18 18 18 17 17 17 16 16 16 15 15 15 14 13 12 11 11 11 10 11 11 10 11 12 12 12 11 9 10 11 10 10 9 9 10 10 9 9 8 8 8 9 9 8 8 8 9 10 9 8 8 8 8 8 8 9 9 9 9 11 12 13 14 14 13 13 14 13 12 12 12 12 12 13 13 14 13 14 14 13
20 21 20 19 19 19 18 18 18 18 17 17 17 16 15 15 15 15 14 13 12 12 11 11 12 12 11 11 11 10 11 11 10 10 10 10 10 9 9 10 10 9 9 9 9 9 10 10 9 9 9 9 10 9 8 8 8 8 8 8 8 8 9 10 11 12 13 15 15 15 15 14 13 12 12 12 13 13 13 13 13 14 14 14 14
21 21 20 19 19 19 19 18 18 18 18 17 17 16 16 15 14 15 14 13 12 12 11 12 12 11 11 11 11 11 11 11 11 11 11 11 10 10 10 10 9 9 9 9 10 10 10 10 10 10 10 10 9 9 9 9 9 8 9 10 10 10 10 11 12 13 13 14 15 15 14 13 13 12 12 13 14 14 14 14 14 15 16 16 17
23 22 20 20 19 19 20 19 19 18 18 18 17 16 16 16 15 14 13 13 12 12 12 12 11 11 11 11 11 11 11 11 12 12 11 12 11 10 11 10 10 10 10 9 10 10 11 11 11 11 10 10 10 9 9 9 9 9 10 10 10 10 11 11 11 12 13 14 15 14 14 13 13 13 13 14 14 14 15 16 16 16 17 18 18
24 23 21 20 20 20 20 20 19 18 18 19 18 17 16 16 16 15 13 13 13 13 13 12 12 12 12 12 11 12 12 12 12 13 12 12 12 12 12 12 11 10 10 10 10 11 11 11 11 11 11 11 10 10 9 9 9 8 9 9 10 11 12 12 12 12 13 13 14 14 14 14 14 14 13 13 14 15 15 16 17 18 18 18 18
22 23 22 21 21 21 21 21 20 19 18 18 19 18 16 15 15 15 15 14 14 14 14 13 12 12 13 13 12 12 12 12 13 13 12 11 12 12 12 12 11 11 10 11 11 11 12 12 11 12 12 13 13 12 12 12 12 12 12 12 12 13 13 13 13 14 14 14 15 14 14 15 14 14 14 13 15 17 17 16 17 19 19 21 22
20 21 21 21 22 23 22 22 22 22 20 19 20 20 18 16 15 15 16 16 15 14 14 14 14 13 13 14 13 12 12 14 16 15 13 12 12 12 13 13 12 12 11 12 12 12 12 12 12 12 14 15 17 17 16 15 15 15 15 15 15 15 16 16 15 15 15 15 15 15 15 16 15 15 16 16 17 17 17 16 18 20 22 25 26
18 20 21 21 21 23 24 23 23 24 22 21 21 21 19 18 17 17 17 17 17 16 15 15 15 14 13 13 13 12 15 17 17 15 14 15 14 13 13 13 12 12 12 12 12 12 12 12 12 13 15 16 17 16 16 16 15 14 15 16 16 17 17 18 18 17 17 17 17 16 17 18 18 17 18 18 17 17 18 18 21 24 26 27 29
19 19 20 21 22 24 25 25 25 24 23 22 22 21 21 21 21 20 18 17 18 17 16 16 16 15 14 14 13 14 17 18 17 16 17 17 17 16 16 14 13 13 13 13 13 13 13 12 13 13 13 15 15 14 15 15 14 13 14 15 16 17 18 18 19 19 19 20 19 18 19 19 19 18 18 18 19 21 22 23 24 26 27 29 31
24 21 20 20 22 24 25 26 26 23 22 23 23 21 22 22 22 22 20 19 18 17 16 16 16 16 16 14 13 16 18 18 18 18 19 20 19 19 19 18 15 14 13 13 14 14 13 13 13 13 12 13 14 13 13 15 14 13 14 15 16 17 17 18 18 19 19 20 20 20 20 21 21 21 21 21 23 25 25 25 26 27 29 31 35
22 24 23 21 21 22 23 25 24 21 21 22 22 22 23 22 22 22 21 21 20 19 17 16 16 17 16 14 15 19 19 18 19 20 20 21 20 19 19 19 16 15 15 14 15 15 13 13 13 13 13 14 15 14 13 13 14 14 15 16 17 18 19 19 20 20 20 20 21 22 22 22 22 22 21 21 22 24 26 28 29 30 32 35 37
16 20 21 20 20 21 21 21 19 18 18 18 19 20 20 21 21 21 20 21 21 20 19 17 15 16 15 14 15 20 21 19 20 21 20 19 18 17 18 18 16 15 15 14 14 15 14 14 14 14 15 16 17 17 17 16 16 17 17 18 19 19 19 20 21 21 22 22 22 23 23 21 20 20 20 20 22 25 28 30 32 33 34 35 35
16 17 18 19 19 19 20 19 18 19 19 18 18 18 19 20 21 20 19 20 20 21 20 18 16 16 14 15 17 21 22 21 20 20 18 16 15 16 16 17 16 16 15 14 14 13 13 14 14 14 17 18 18 19 19 19 19 20 20 20 20 20 18 17 18 20 21 22 22 22 23 23 23 24 25 26 26 27 28 30 31 32 31 31 33
17 17 19 19 17 17 17 18 19 20 19 19 19 20 20 21 22 21 21 20 21 23 23 20 19 18 17 18 21 21 20 19 18 17 17 16 16 16 16 16 16 16 16 17 17 14 12 13 14 16 17 18 19 20 20 20 20 20 20 21 21 20 19 18 20 21 22 22 23 24 26 26 26 25 26 26 26 27 28 30 30 29 26 27 31
17 18 20 20 18 17 16 18 19 18 17 18 18 19 20 21 22 22 22 22 23 26 24 20 20 20 19 20 22 22 20 18 17 17 17 17 17 17 16 16 16 15 17 18 18 16 15 14 15 19 20 19 20 21 21 21 21 21 21 21 21 20 19 19 20 21 21 22 23 25 25 25 25 25 25 25 25 24 25 27 26 24 22 24 28
11 14 17 19 21 20 18 20 21 19 17 16 16 16 17 18 20 22 23 24 24 24 22 21 23 24 22 21 22 22 19 17 17 17 18 18 17 16 16 15 14 14 17 18 17 16 15 15 16 19 21 22 21 21 21 21 20 20 21 20 19 19 19 20 21 22 22 22 22 23 23 24 25 24 23 22 22 21 21 22 21 20 22 24 25
9 8 9 12 16 18 17 18 19 19 19 17 16 16 16 17 21 23 23 24 24 21 18 19 22 23 22 22 21 18 15 14 15 16 16 16 15 14 13 12 11 11 11 12 13 12 11 13 15 17 18 20 20 20 20 19 19 19 19 19 19 19 20 21 22 23 23 23 21 21 21 20 20 20 20 21 21 20 20 21 20 20 22 25 26
12 11 10 8 9 12 12 12 14 15 16 15 14 14 15 15 17 19 20 21 23 21 16 16 18 19 19 18 16 14 12 11 11 11 10 10 9 10 10 11 12 13 9 7 9 9 7 8 13 16 16 18 18 19 18 18 17 17 17 18 19 19 20 20 20 20 20 19 18 16 16 16 16 17 19 19 19 19 19 19 19 18 19 23 26
15 14 13 12 12 13 15 15 15 14 14 14 14 14 14 14 14 14 14 14 16 17 15 14 15 15 14 12 11 10 9 7 7 6 6 6 7 7 8 9 11 12 10 7 8 9 9 9 13 15 15 16 16 15 15 15 14 14 14 15 16 16 17 17 16 16 15 16 15 13 12 13 14 16 17 17 17 17 16 16 17 17 17 20 23
13 14 13 13 14 15 16 15 14 15 16 16 16 16 16 15 14 13 11 10 10 10 10 10 10 10 8 7 7 6 5 3 3 3 3 3 4 4 5 7 8 9 9 9 9 9 10 11 12 12 13 13 13 12 12 12 12 12 12 13 14 15 15 14 13 13 13 14 14 13 13 15 16 17 18 19 19 20 20 19 19 19 18 18 19
12 12 12 12 13 15 15 14 13 15 17 17 16 16 16 15 14 13 11 10 9 9 8 8 8 8 7 6 6 5 3 3 2 1 2 1 1 0 1 2 4 4 4 6 7 6 6 7 7 8 8 9 10 11 10 10 11 11 12 13 13 13 13 13 14 14 14 13 14 15 16 17 18 18 19 20 20 21 21 21 21 20 20 19 19
12 13 13 11 12 13 14 12 12 14 16 16 15 14 13 13 13 11 10 10 9 8 8 7 8 8 7 5 6 5 4 3 2 1 1 2 2 1 1 1 1 2 2 2 4 4 5 5 5 6 7 8 9 11 11 11 12 12 11 11 10 9 11 15 16 16 15 15 16 16 17 18 19 20 20 21 20 20 21 21 20 20 20 20 20
11 12 12 11 11 11 11 10 10 10 11 11 12 12 10 10 10 10 9 9 8 7 5 4 5 5 4 4 4 4 3 3 3 3 3 2 1 1 2 2 3 4 4 5 5 5 6 7 7 8 9 9 10 11 12 12 12 13 13 11 8 9 13 15 15 15 15 16 16 17 18 19 20 20 21 22 21 21 22 23 23 22 22 22 22
11 11 11 11 11 10 9 9 9 8 7 6 6 6 6 6 9 10 10 10 9 8 6 4 4 4 2 2 2 3 3 3 3 4 3 2 2 2 3 4 5 5 6 7 7 7 8 8 9 9 9 9 10 10 11 13 13 13 13 10 8 12 16 15 14 15 16 16 16 17 18 19 19 20 20 20 20 21 22 24 24 24 24 24 25
9 10 10 9 9 9 8 10 10 9 8 8 7 7 6 7 9 11 11 11 12 12 10 8 7 5 4 4 4 4 4 4 2 1 0 2 4 5 5 6 6 6 7 7 7 8 8 6 6 6 6 6 6 6 7 10 10 9 11 9 7 12 16 15 14 15 15 16 17 17 18 19 19 19 19 19 20 22 23 24 24 24 25 25 25
8 8 9 9 9 9 9 9 9 8 7 9 11 10 8 7 9 10 10 11 13 13 13 13 12 10 10 10 8 7 6 7 4 2 2 4 5 5 6 6 6 6 6 5 5 5 3 3 5 5 5 4 4 3 4 7 6 6 9 9 7 9 13 13 14 15 14 15 16 16 17 18 18 18 19 20 22 23 23 23 24 24 25 25 24
8 8 8 7 8 8 8 8 8 7 7 7 9 9 7 6 7 9 9 10 12 13 14 15 15 14 14 13 12 12 12 9 5 3 4 4 4 5 5 5 5 4 4 4 3 3 4 4 4 4 3 3 4 4 4 6 6 5 7 8 8 9 11 12 14 15 15 15 16 16 17 18 18 19 20 21 23 24 23 23 23 23 23 24 24
8 8 7 7 8 8 7 7 8 8 7 7 7 8 8 8 9 10 10 11 12 12 13 14 14 12 12 13 13 15 14 11 7 5 5 5 4 5 5 4 4 4 3 3 3 5 4 4 3 3 4 4 5 5 5 6 7 7 7 7 7 10 13 13 14 14 14 14 15 15 17 18 18 20 20 21 22 23 23 23 23 22 22 22 22
8 7 7 8 10 9 8 8 8 7 7 6 6 6 6 7 9 10 10 11 11 11 11 11 11 10 10 11 12 12 12 10 8 7 6 5 4 4 5 5 5 4 4 2 2 3 3 3 4 4 5 5 6 6 6 6 8 8 9 8 8 11 14 15 15 15 15 14 15 15 16 18 19 20 21 22 22 22 22 23 22 21 22 21 22
7 7 7 8 10 9 8 8 9 8 6 5 5 6 5 5 6 7 8 9 9 9 9 9 9 10 10 10 10 10 9 8 8 7 5 4 4 4 5 5 5 4 3 0 2 2 2 3 3 4 4 4 6 7 6 8 9 9 9 10 10 12 15 16 15 16 16 16 16 16 17 19 19 20 21 21 22 22 22 22 20 20 21 23 25
8 8 8 9 10 9 8 8 8 8 7 6 6 5 5 6 5 4 6 5 4 6 8 9 10 10 10 10 10 10 9 8 8 7 5 4 3 4 3 4 6 6 4 3 3 3 3 3 4 4 4 5 6 6 6 8 8 8 8 9 10 13 15 15 15 16 17 16 14 15 17 18 18 19 20 21 21 22 22 22 21 21 23 25 27
6 9 10 11 10 8 7 7 7 7 7 8 8 7 6 7 6 4 4 3 3 4 6 8 9 10 10 11 10 10 9 9 7 7 6 4 4 4 1 4 6 6 6 5 4 3 3 4 4 5 5 6 7 7 7 8 9 9 9 10 11 13 13 13 15 17 17 15 13 15 17 17 16 17 18 18 19 19 20 20 20 21 24 27 29
5 7 10 10 8 7 7 8 8 8 7 8 8 8 7 7 6 5 5 6 4 2 3 7 6 4 5 8 10 10 10 8 7 7 6 4 3 2 1 4 4 2 2 3 4 5 4 4 5 5 5 6 7 7 8 8 9 10 10 11 13 13 12 13 16 17 16 13 13 15 16 16 16 17 17 17 17 18 18 19 19 21 24 27 29
8 8 9 9 9 8 8 9 10 11 11 10 9 8 8 7 7 7 6 6 6 6 5 6 4 3 5 6 7 8 8 7 5 5 5 3 0 2 3 3 3 2 3 4 6 7 7 6 6 6 6 6 7 8 8 9 10 10 11 12 14 13 13 14 16 15 14 13 13 13 15 15 16 17 17 17 18 19 19 20 21 24 26 28 28
11 12 13 13 11 10 10 10 11 12 12 10 8 9 9 7 7 7 7 7 7 6 5 5 4 2 2 4 4 3 3 1 4 6 5 4 3 3 2 2 2 2 3 4 5 7 7 7 7 7 8 8 8 8 9 9 10 10 12 13 13 12 13 14 13 13 14 13 12 13 14 16 17 18 17 18 18 19 20 22 23 25 27 27 25
11 14 17 17 13 10 10 10 9 9 11 10 8 8 9 8 8 7 7 7 7 6 5 5 4 4 5 6 6 5 5 4 5 5 3 3 2 1 1 1 1 2 2 3 4 5 5 5 6 7 8 9 9 9 9 10 11 12 13 12 12 12 13 13 13 13 14 13 13 14 15 16 18 19 19 19 19 19 21 23 23 24 24 24 23
9 11 15 18 15 10 9 9 7 8 10 10 8 8 9 8 7 7 6 6 6 5 5 4 3 5 9 11 10 8 11 8 3 1 1 1 1 1 1 1 1 2 2 3 4 4 4 5 6 6 7 8 8 9 10 10 11 12 12 12 12 13 13 13 13 13 13 13 14 15 16 16 17 18 18 18 20 21 22 22 21 21 21 22 23
8 7 10 16 16 10 7 9 9 8 9 10 8 9 9 8 7 6 5 5 5 5 5 4 4 8 13 12 7 6 12 11 5 1 1 2 2 2 3 3 3 3 3 4 4 4 5 6 6 7 7 8 8 9 10 10 11 11 12 12 12 13 13 14 14 14 14 14 15 15 16 17 17 17 17 18 19 20 21 21 20 20 21 22 23
8 7 8 13 15 11 7 9 10 9 9 10 9 9 10 8 7 6 6 5 5 5 4 4 5 10 11 7 4 6 10 10 5 1 2 3 3 4 4 4 4 4 5 5 6 6 5 6 7 8 8 9 9 9 10 10 11 12 12 12 13 13 14 14 15 14 14 14 14 15 16 17 17 18 18 18 18 19 20 20 21 22 22 22 22
8 8 8 10 12 11 8 8 10 10 10 10 10 10 9 8 7 6 6 5 5 4 4 4 4 8 10 7 3 4 6 6 4 4 4 4 5 4 4 4 5 5 6 7 7 6 6 7 8 8 9 9 9 9 10 10 11 12 13 13 13 14 14 14 14 14 13 13 13 14 15 16 18 20 20 20 19 20 20 20 21 22 23 23 23
9 8 8 9 10 10 9 9 10 10 10 10 10 10 10 9 7 6 6 5 5 5 4 3 3 5 7 8 4 1 2 2 3 4 4 4 4 4 4 5 6 6 6 6 6 6 7 8 9 10 9 9 9 9 10 10 11 11 11 12 13 13 14 15 17 18 18 18 19 18 17 18 20 21 22 22 22 22 22 22 22 22 24 24 24
9 8 9 9 9 9 9 10 10 10 10 10 9 9 9 8 7 6 6 5 5 5 4 4 4 4 4 3 2 1 1 2 3 4 4 4 4 4 4 6 6 6 6 6 6 6 8 8 9 10 10 9 9 10 10 11 11 11 10 11 13 16 18 19 20 22 24 25 26 25 24 24 23 23 24 25 24 23 22 22 22 23 25 25 25
10 9 9 9 9 9 9 9 9 9 9 8 8 7 7 7 6 6 6 5 5 4 4 4 4 4 4 3 2 2 2 2 2 3 4 4 4 4 4 5 6 6 6 7 7 7 8 9 9 10 10 10 10 11 11 11 12 11 10 11 16 20 21 21 23 25 27 28 30 30 30 28 26 25 25 24 23 22 22 22 22 23 26 27 26
10 10 9 9 9 9 9 9 9 9 9 8 7 7 6 6 6 6 7 8 8 6 4 4 4 3 3 3 3 2 3 2 3 4 4 3 4 4 4 5 6 6 6 7 7 8 8 9 9 9 10 10 10 10 10 11 12 11 9 12 18 22 22 22 24 26 28 29 30 31 30 28 26 24 23 22 22 22 23 22 22 23 25 27 27
11 10 10 10 10 9 9 8 9 9 8 7 8 8 7 6 6 6 5 7 7 6 4 4 3 3 3 4 4 4 4 4 4 4 3 3 4 4 5 5 6 6 6 6 7 7 8 8 8 9 9 9 9 9 9 10 11 9 9 13 20 23 23 24 25 26 28 29 29 29 29 27 26 25 23 21 21 22 23 23 22 22 23 24 25
11 11 10 10 10 10 9 9 9 8 8 8 8 8 7 6 6 6 5 5 5 5 4 4 4 4 5 5 4 3 4 4 3 3 3 4 4 4 4 5 6 6 6 6 7 7 7 8 8 9 9 8 8 9 8 9 9 8 9 14 19 20 21 22 23 24 25 26 26 26 26 26 26 25 23 21 20 21 21 22 22 22 23 24 24
11 11 10 11 11 10 9 9 8 8 8 8 7 7 7 7 6 6 6 5 5 5 5 5 4 4 3 3 3 3 3 3 2 3 3 4 4 5 5 6 6 6 6 7 7 7 7 7 8 8 8 8 8 8 8 8 8 9 12 16 18 19 19 20 20 20 21 22 24 25 25 25 24 24 22 20 19 20 20 21 22 22 23 24 24
12 11 11 11 11 10 9 9 8 8 8 8 7 7 7 6 6 6 6 5 5 5 4 4 4 3 3 3 3 3 3 3 3 3 4 4 5 6 6 6 6 6 7 7 7 7 7 7 8 8 8 8 8 8 8 8 11 13 16 18 20 21 21 21 20 20 21 21 22 23 24 23 23 21 20 20 19 20 20 21 21 22 23 24 24
Wind_Direction
188 191 191 192 194 193 195 196 193 192 193 193 192 194 198 196 195 197 193 194 202 209 207 199 203 207 201 206 207 210 218 211 212 225 224 224 226 219 225 242 250 247 248 244 239 248 258 261 264 265 267 267 263 264 269 272 272 270 271 271 270 274 275 277 283 290 296 299 297 296 298 298 299 296 294 296 297 297 300 306 316 322 319 317 320
190 192 191 192 195 195 196 198 196 195 195 197 195 195 198 197 196 196 197 199 197 200 206 202 205 205 199 208 207 205 224 223 213 222 229 229 230 226 231 247 250 243 248 252 248 247 255 262 266 268 269 270 267 264 263 266 268 268 268 269 270 270 270 275 279 285 293 298 296 298 302 301 297 296 297 300 303 305 308 314 319 319 315 315 318
192 194 194 194 196 196 198 199 200 199 198 199 199 198 199 198 197 196 196 201 198 197 202 200 208 209 199 210 213 207 223 229 215 219 231 233 231 225 227 245 254 251 250 254 256 253 255 262 266 263 262 263 262 261 260 262 266 267 265 264 265 267 268 271 274 279 287 292 294 297 298 296 294 297 299 301 305 307 309 313 315 315 314 314 317
194 196 196 196 197 198 200 199 201 202 202 204 204 203 203 201 200 198 196 198 198 199 198 196 213 220 206 212 222 218 223 228 219 221 231 234 234 227 222 226 236 245 247 247 250 251 252 257 259 255 253 253 255 258 260 262 263 264 267 269 269 269 269 268 272 278 284 290 296 298 297 299 300 299 299 301 303 304 307 309 309 310 310 311 316
193 196 197 197 198 201 203 201 203 205 204 206 208 208 208 206 204 203 199 198 200 202 199 197 212 224 213 212 225 226 226 228 223 222 229 235 237 234 234 234 236 240 244 245 245 246 249 252 250 248 248 250 256 261 262 260 260 263 268 269 267 268 268 268 273 278 282 287 294 298 302 305 304 299 298 302 304 303 304 304 305 309 310 309 310
197 198 198 198 199 202 204 204 205 207 206 209 210 210 211 211 209 207 200 198 202 205 204 203 210 219 214 209 220 227 227 227 226 223 223 231 236 236 238 241 242 243 244 246 249 249 249 251 251 248 247 248 250 254 257 258 260 263 264 263 264 268 271 275 280 283 285 289 294 300 303 302 300 300 301 302 304 305 307 310 312 314 312 311 312
203 206 203 201 201 202 203 205 207 208 208 209 210 211 212 211 212 212 203 201 206 207 207 207 210 217 218 213 216 226 227 224 229 231 226 227 230 232 236 241 241 244 246 244 246 248 248 250 251 249 247 247 248 250 257 265 267 267 268 270 272 274 274 278 281 283 285 289 294 297 297 296 298 300 302 303 305 309 312 314 314 312 312 314 316
204 212 210 206 206 205 203 204 205 207 209 210 209 211 213 211 213 214 209 208 211 211 210 211 211 216 222 219 214 224 232 230 233 239 235 230 230 230 234 237 239 242 246 245 246 249 249 248 248 249 248 247 245 244 246 253 256 257 263 266 266 270 276 279 280 281 283 287 290 293 294 297 300 301 303 306 307 308 310 310 309 309 312 312 311
208 216 214 209 210 210 206 205 205 204 206 209 209 209 211 211 211 211 210 211 213 215 215 214 215 217 221 222 217 220 231 233 233 238 238 235 237 238 237 239 241 242 244 246 249 249 250 251 250 248 246 243 245 248 246 246 249 250 253 258 263 270 276 278 279 282 286 288 290 293 295 298 301 303 304 305 304 305 308 307 305 307 308 307 307
214 219 218 212 214 215 211 209 210 207 204 206 208 208 209 209 210 211 211 212 213 215 216 214 217 219 221 225 224 220 227 233 235 237 237 239 241 239 238 242 244 241 241 245 250 252 254 257 256 253 251 251 258 266 266 262 262 262 263 266 269 272 273 274 276 279 283 286 289 294 296 296 299 302 301 302 305 307 307 306 304 305 307 308 310
213 219 219 213 212 216 213 210 213 213 210 209 210 209 206 206 210 211 210 211 212 213 214 214 216 219 221 225 227 224 228 235 239 240 239 245 249 242 238 247 252 249 249 250 253 257 259 260 260 259 258 258 264 270 270 268 270 274 278 281 282 282 283 283 282 282 281 282 285 288 289 291 295 298 299 302 304 302 301 301 303 306 309 311 311
215 215 217 212 209 214 213 210 213 214 213 214 214 212 208 206 209 209 205 206 211 212 213 216 215 216 221 226 230 233 235 236 239 240 241 246 250 246 241 248 258 262 261 258 258 259 259 261 263 262 261 264 270 272 268 266 268 274 280 285 288 291 293 293 293 293 291 289 288 288 289 291 293 295 298 300 298 297 298 301 304 308 310 310 309
221 216 216 213 213 217 217 215 216 215 212 212 211 212 215 214 215 216 213 212 215 214 214 218 220 220 221 223 229 235 237 238 238 239 242 247 251 250 247 247 253 261 263 262 262 260 257 260 264 263 264 269 272 270 264 264 268 273 276 279 284 288 290 292 294 295 295 293 291 290 290 291 292 295 297 298 298 299 302 305 308 309 309 308 308
222 221 220 217 216 218 218 214 213 212 212 212 209 210 216 218 219 222 223 222 223 220 216 215 219 222 219 216 226 233 233 235 238 239 243 250 252 253 251 250 252 258 260 262 264 263 261 261 261 263 264 262 257 253 252 257 265 273 278 280 282 285 286 288 291 292 293 292 290 290 291 292 295 298 299 300 302 303 305 307 308 308 306 307 309
218 219 220 218 217 219 221 216 208 205 211 217 218 216 217 218 220 222 224 225 226 225 222 215 214 221 217 208 220 232 231 230 236 240 244 250 253 251 251 251 252 256 261 266 262 258 256 256 256 259 259 255 253 255 257 259 264 271 276 279 281 283 285 289 292 293 291 290 291 293 294 293 293 291 290 291 292 293 296 299 302 304 306 308 310
212 210 211 213 215 220 226 227 221 216 218 224 228 227 225 225 225 226 228 229 226 224 222 215 209 209 202 198 213 229 232 232 236 241 244 248 249 248 249 250 249 248 253 257 250 242 242 247 250 252 253 253 255 259 261 264 268 272 273 274 276 279 279 279 280 280 279 280 283 283 281 280 279 278 279 282 284 288 292 295 298 303 304 303 302
213 212 212 211 212 215 217 221 225 226 225 227 229 229 229 228 228 229 231 233 232 227 219 209 204 199 190 194 211 225 231 233 236 240 244 247 246 245 246 247 246 243 242 246 249 251 256 256 252 255 258 259 259 260 261 264 267 270 272 272 272 274 275 273 271 270 269 270 273 274 276 279 282 283 284 287 289 293 294 295 297 300 298 294 295
220 223 222 217 214 213 210 211 218 220 219 222 225 225 226 228 228 229 231 232 234 233 223 207 201 202 197 200 214 226 233 237 241 243 245 248 248 247 246 247 248 247 247 249 252 257 262 260 256 262 267 267 264 262 263 266 269 271 274 274 274 275 277 276 273 272 270 269 270 274 280 286 291 294 296 295 295 294 294 295 298 298 295 295 297
205 217 224 222 220 219 216 215 219 219 216 216 219 220 223 226 227 227 227 226 226 229 226 211 201 203 206 211 221 229 233 237 244 247 250 252 253 251 248 248 249 252 254 256 253 250 255 260 259 263 269 269 268 268 268 270 273 275 277 278 276 275 275 275 276 279 281 280 279 282 286 290 295 299 299 296 294 294 294 295 298 299 296 296 297
142 162 186 202 211 211 210 212 215 216 213 208 203 204 208 214 219 220 221 220 219 219 218 210 202 202 207 213 222 229 233 237 244 248 253 255 253 248 242 239 237 236 243 258 258 252 259 267 264 265 271 274 275 275 275 276 279 280 280 280 279 279 279 279 281 285 288 289 289 291 292 292 294 296 294 290 290 290 291 293 299 303 298 293 292
123 125 127 137 163 173 173 175 183 191 196 193 188 193 200 204 211 215 215 213 213 211 206 199 198 199 202 208 217 226 233 237 241 247 252 250 244 240 235 232 234 236 235 249 251 235 231 261 269 270 277 284 283 280 280 281 282 283 283 284 285 287 287 287 288 289 291 294 296 299 300 296 292 291 291 292 293 293 293 296 302 305 299 293 294
123 123 117 119 130 135 134 137 146 155 162 164 162 166 174 180 185 193 199 197 197 197 194 192 194 194 195 201 208 215 223 229 234 240 242 237 231 230 227 226 234 240 237 232 233 223 222 256 273 272 275 285 288 284 285 288 288 288 289 290 292 293 293 295 296 295 295 296 298 301 302 298 296 295 296 298 300 299 301 305 309 310 303 296 296
120 125 121 116 114 116 119 122 128 135 139 142 142 142 147 154 158 164 171 170 169 171 170 171 176 176 174 173 175 183 193 200 215 226 225 229 228 221 218 222 228 232 229 232 241 240 239 257 272 272 274 286 293 294 299 302 302 303 303 301 302 302 301 305 306 302 300 299 298 297 298 300 301 300 299 299 300 300 301 303 305 305 303 300 299
123 127 128 119 108 110 115 114 117 126 131 131 132 132 133 136 136 138 141 141 142 142 137 133 136 139 139 138 139 138 133 127 122 106 95 86 52 86 161 213 231 236 233 241 255 262 264 273 279 279 286 297 303 306 311 314 317 320 317 317 320 316 313 319 323 321 319 316 312 313 315 316 316 314 310 309 310 310 311 310 307 305 304 305 304
123 122 126 127 121 120 123 122 120 124 128 129 126 122 121 124 122 117 118 121 120 116 117 122 127 128 132 142 142 132 126 129 119 89 65 44 33 11 4 6 295 287 282 275 281 290 296 299 298 300 305 311 313 316 317 320 323 323 319 326 336 327 315 322 329 330 330 329 327 326 326 325 325 325 323 325 327 328 327 327 325 322 321 319 316
121 120 121 127 128 126 126 131 131 128 131 132 126 121 119 118 116 116 119 119 114 105 106 127 152 162 174 194 192 178 179 208 225 225 232 248 263 302 322 323 308 303 301 297 296 298 301 304 307 309 310 309 310 312 311 311 315 316 317 328 335 312 307 318 325 325 326 328 327 327 326 325 326 326 326 329 332 332 331 330 329 331 331 329 328
123 125 127 128 127 124 125 132 135 128 123 124 125 131 133 127 130 137 138 131 127 128 130 139 155 158 153 165 182 168 164 193 219 210 210 235 255 274 293 293 291 294 292 289 291 292 292 293 295 297 299 304 314 321 316 311 316 318 317 323 320 304 305 312 314 314 318 319 319 321 321 320 322 324 325 327 327 325 326 327 327 328 330 329 329
136 136 137 136 135 137 135 131 126 122 125 133 135 135 140 151 158 160 159 152 144 142 143 142 138 134 145 157 145 132 153 194 222 206 250 302 299 296 295 292 290 289 286 288 291 287 286 294 306 313 322 325 331 341 328 320 329 328 316 317 320 310 309 311 310 311 314 314 314 315 315 316 319 320 319 319 317 318 321 322 323 324 326 327 329
150 147 145 145 148 149 143 135 130 129 141 159 161 152 151 167 177 179 181 175 163 156 155 155 155 162 176 180 168 162 197 235 262 285 283 288 292 292 293 293 294 294 295 300 300 296 315 6 2 352 5 359 336 341 331 325 336 338 324 325 328 316 313 314 314 315 316 314 316 318 317 318 320 319 318 318 318 321 324 324 324 326 327 328 330
162 159 156 157 156 152 147 146 142 133 133 156 174 177 176 171 168 174 183 183 177 173 172 172 174 180 187 190 185 187 208 238 267 273 268 278 283 284 291 298 301 308 313 317 344 18 29 38 23 353 4 8 344 348 353 336 332 336 334 335 333 321 317 319 320 322 324 323 324 325 323 323 323 321 323 323 323 325 328 328 329 330 330 330 331
172 168 165 168 166 161 158 154 147 141 138 144 165 180 181 172 167 171 177 181 182 184 187 190 192 194 197 199 199 203 216 239 262 264 266 279 287 291 303 308 310 323 325 328 39 51 30 15 7 350 3 11 345 343 0 347 334 335 337 340 339 324 317 319 324 326 324 323 324 325 323 322 322 323 325 327 327 329 332 333 334 334 333 332 331
180 179 182 181 173 165 160 158 156 155 152 145 145 158 171 180 183 181 179 182 187 191 197 202 207 207 203 201 204 211 224 241 256 260 266 280 291 303 314 316 324 340 337 335 67 75 41 21 11 352 1 6 337 333 344 334 325 329 329 331 334 322 315 318 324 323 321 322 325 326 322 320 321 323 326 328 330 331 332 334 335 334 331 331 328
188 190 187 180 176 171 164 166 168 165 158 154 151 150 160 180 197 202 198 195 197 202 206 211 217 219 217 214 217 224 233 243 252 259 267 279 294 306 314 325 337 340 328 21 95 71 18 22 3 337 345 345 326 326 330 319 319 326 324 322 322 313 308 315 320 318 317 321 324 323 320 318 320 323 325 327 329 330 331 332 332 329 327 326 326
192 190 181 176 180 180 172 170 172 167 167 171 167 160 163 169 178 202 210 213 232 238 230 228 227 226 228 229 230 235 241 246 253 262 264 270 287 294 308 351 4 356 355 28 45 19 3 9 351 328 324 320 314 315 317 315 316 317 313 312 310 306 310 318 318 312 313 319 322 318 314 313 318 321 322 324 326 326 327 329 329 326 324 324 324
195 193 189 181 178 179 179 179 179 178 179 180 178 180 187 184 179 180 189 212 282 296 274 257 241 230 234 240 239 241 244 243 248 256 254 257 270 267 284 44 30 12 10 15 1 338 347 352 333 317 315 321 325 325 325 326 323 317 314 311 306 308 317 319 311 308 315 324 327 320 316 318 322 321 320 324 325 324 325 327 326 323 321 320 321
210 208 202 192 185 193 198 194 193 196 194 186 185 194 199 196 195 195 192 201 210 221 268 274 265 251 254 251 243 243 247 247 253 263 266 270 265 233 105 50 28 0 9 352 310 300 310 310 306 312 322 331 334 330 328 329 325 322 321 315 309 313 319 313 309 314 323 331 331 326 323 324 324 321 322 324 322 320 322 322 320 317 316 317 319
212 212 207 203 204 205 199 196 203 204 193 181 187 201 203 198 198 200 199 204 202 195 214 248 271 317 320 296 270 251 241 239 258 285 295 302 337 109 67 25 358 350 357 330 309 310 313 306 306 315 319 319 319 319 319 321 321 320 318 314 316 323 324 321 322 327 329 331 332 329 325 323 322 322 323 321 319 320 321 319 316 316 316 318 321
217 215 205 202 206 203 196 205 220 215 198 190 198 204 201 200 203 201 199 204 205 199 199 211 222 243 294 306 295 242 183 137 353 351 353 358 31 60 40 354 352 8 356 329 325 333 335 329 326 325 318 312 311 312 315 319 320 316 314 318 326 331 328 327 330 329 326 329 331 325 322 322 319 317 316 315 317 319 315 312 313 316 319 321 323
225 229 216 207 207 207 202 210 223 213 199 201 211 205 197 199 203 200 200 204 204 200 199 202 203 192 196 226 244 206 145 78 6 355 12 14 2 340 314 318 350 348 326 319 325 331 335 334 331 326 320 316 315 316 318 320 319 318 320 325 330 328 325 326 328 325 325 328 326 322 322 322 318 315 314 312 312 309 306 308 315 320 320 320 319
227 239 230 217 211 209 206 206 207 199 195 201 209 207 202 204 203 200 202 204 198 195 198 192 186 210 224 238 241 198 157 135 96 343 245 260 275 295 326 349 346 321 316 321 319 318 323 327 325 325 324 322 323 326 325 324 324 323 324 325 325 323 323 323 321 319 320 320 319 320 323 322 320 318 317 314 312 311 312 315 319 318 315 314 314
212 228 231 217 204 198 205 205 198 195 197 200 203 206 207 207 204 200 203 204 199 203 205 194 208 240 244 250 255 206 174 159 137 67 295 271 275 285 282 272 274 293 310 318 318 324 331 328 325 329 330 325 324 325 325 325 325 324 322 322 321 319 318 317 315 315 316 317 317 318 317 314 311 309 311 314 316 317 317 317 316 314 312 313 314
203 208 215 206 195 191 202 204 195 192 195 196 200 205 206 205 204 203 205 203 197 200 203 201 233 256 259 264 270 235 207 190 183 238 282 271 269 278 289 301 310 314 312 309 307 311 319 320 322 328 328 322 320 321 322 324 325 324 323 322 319 316 317 317 315 315 315 315 314 311 307 304 301 300 305 312 316 315 314 313 312 313 313 313 313
195 200 201 198 194 194 201 200 192 189 192 193 196 199 199 200 205 207 206 203 197 198 203 200 229 263 279 290 285 229 205 201 226 271 282 280 283 294 312 317 305 290 293 301 305 307 312 314 312 311 309 309 311 313 315 320 323 321 319 317 316 318 318 311 301 296 298 302 304 303 301 300 301 302 305 308 312 313 311 309 310 312 312 311 312
189 196 196 192 192 194 194 193 189 188 189 190 190 192 194 197 200 201 201 203 200 198 202 198 205 249 287 309 329 28 158 208 260 265 267 285 304 308 305 300 292 288 295 307 312 313 314 312 310 308 307 306 308 310 313 318 318 313 311 314 314 308 299 288 281 280 282 287 292 296 299 302 305 307 308 308 309 309 309 309 309 310 308 308 310
184 194 193 187 187 188 185 184 185 186 187 187 187 192 194 191 190 192 196 203 206 202 202 208 207 214 243 288 315 299 248 251 267 265 262 268 274 274 283 297 301 297 296 300 305 309 309 307 308 309 309 308 307 306 307 307 301 297 303 310 301 288 281 280 282 283 284 285 287 291 296 300 304 306 308 308 308 308 307 306 307 308 308 308 309
182 191 189 185 186 186 184 184 184 183 183 184 187 193 193 187 186 190 187 187 196 198 196 209 224 230 233 238 246 254 253 250 264 271 267 266 272 281 293 302 301 295 295 298 300 302 303 303 303 302 303 303 300 297 297 297 292 290 297 295 284 278 278 281 282 282 283 285 288 291 294 298 302 304 306 307 307 307 305 304 305 307 308 309 309
183 186 183 184 187 185 184 189 187 183 184 186 186 190 192 187 187 194 197 200 200 194 187 204 222 229 230 228 227 243 257 259 259 264 271 290 306 302 297 295 293 292 294 295 295 296 300 302 302 300 300 300 297 295 296 292 285 284 288 283 276 275 277 280 280 282 286 289 293 296 298 301 303 305 306 307 306 305 304 304 304 302 302 303 305
185 183 179 181 184 182 183 190 188 183 186 189 186 186 190 191 189 195 209 215 208 194 188 206 209 198 207 222 229 241 254 259 264 273 289 304 301 291 289 294 294 292 292 295 297 299 301 303 303 302 302 302 301 301 300 294 288 287 282 274 271 273 278 282 285 288 292 295 298 301 303 304 307 308 308 307 305 304 304 305 304 302 301 301 303
186 185 181 180 180 180 183 188 186 183 185 190 189 187 189 191 192 191 192 196 195 188 188 197 198 203 219 232 239 247 255 260 269 286 295 296 292 291 295 297 296 296 297 298 300 301 301 301 301 301 302 302 302 302 301 301 302 297 282 276 277 282 287 290 291 292 295 298 300 302 305 307 308 309 309 307 304 303 303 303 303 303 303 302 303
186 184 182 180 178 179 182 183 182 184 187 187 187 190 189 189 191 192 189 190 192 194 195 200 204 210 219 228 231 237 249 263 283 295 295 291 293 297 298 296 297 300 299 298 299 301 302 302 301 300 300 301 301 301 304 306 299 288 282 286 293 299 301 301 299 297 296 297 298 301 304 306 307 307 307 306 303 302 303 302 302 303 303 302 302
186 182 181 178 175 177 180 180 181 187 188 185 186 190 190 186 187 190 193 192 192 193 198 202 204 205 210 223 236 247 258 271 283 293 295 294 295 298 297 296 297 297 295 297 300 299 298 300 300 298 300 301 299 300 303 297 286 282 286 294 301 305 307 308 307 303 300 300 301 304 307 308 308 308 307 305 303 302 301 301 301 302 303 302 302